www.pogodaiklimat.ru

Погода и климат >> Архив погоды >> Канада >> Нунавут >> Исачсен


ПОГОДА в Исачсене

  • Прогноз погоды в Исачсене
  • Монитор погоды в Исачсене

АРХИВ ПОГОДЫ в Исачсене

Время (UTC), дата Ветер
(напр.,м/с)
 
Видим.   Явления Облачность Т
(С)
Тd
(С)
f
(%)
Тe
(С)
Тes
(С)
Комфортность P
(гПа)
Po
(гПа)
Тmin
(С)
Tmax
(С)
R
(мм)
R24
(мм)
S
(см)
21 16.07 Ю 6 н/о н/о +7.8 +6.0 88 +3 +3 1004.8 997.4
00 17.07 Ю 5 н/о н/о +8.9 +6.3 84 +6 +6 1005.1 997.7 +4.0 +9.2
03 17.07 Ю 6 н/о н/о +9.0 +6.3 83 +5 +5 1005.2 997.8
06 17.07 Ю 3 н/о н/о +7.9 +5.7 86 +5 +5 1005.5 998.1 +4.0 +9.6 12
09 17.07 ЮВ 4 н/о н/о +7.6 +5.9 89 +4 +4 1005.8 998.4
12 17.07 ЮВ 2 н/о н/о +7.5 +5.5 87 +5 +5 1006.1 998.7 +6.7 +9.6
15 17.07 Ю 3 н/о н/о +9.2 +5.8 79 +7 +7 1006.0 998.7
18 17.07 Ю 2 н/о н/о +9.8 +6.0 77 +8 +8 1006.3 998.9 +6.7 +10.1
21 17.07 ЮЗ 1 н/о н/о +10.8 +3.2 59 +11 +11 1006.6 999.2
00 18.07 ЮЗ 4 н/о н/о +9.0 +5.7 80 +6 +6 1007.5 1000.1 +6.7 +11.1
03 18.07 В 2 н/о н/о +9.9 +5.4 74 +9 +9 1007.7 1000.3
06 18.07 ЮЗ 1 н/о н/о +8.9 +6.0 82 +8 +8 1008.2 1000.8 +6.7 +11.1
09 18.07 СЗ 1 н/о н/о +9.7 +5.9 77 +9 +9 1008.8 1001.4
12 18.07 С 2 н/о н/о +9.7 +6.1 78 +9 +9 1009.5 1002.1 +8.3 +11.1
15 18.07 Ю 2 н/о н/о +9.3 +5.8 79 +8 +8 1009.4 1002.0
18 18.07 ЮЗ 2 н/о н/о +9.4 +5.8 78 +8 +8 1009.0 1001.6 +8.3 +10.2
21 18.07 н/о н/о +10.6 +4.1 64 1009.0 1001.6
00 19.07 С 5 н/о н/о +9.7 +3.6 66 +7 +7 1008.6 1001.2 +8.6 +11.3
03 19.07 С 4 н/о н/о +9.1 +3.6 68 +6 +6 1007.8 1000.4
06 19.07 СЗ 6 н/о н/о +5.1 +4.0 93 0 0 1007.1 999.7 +4.7 +11.3
09 19.07 СЗ 7 н/о н/о +1.7 +1.4 98 -5 -5 1006.7 999.3
12 19.07 СЗ 5 н/о н/о +0.8 +0.4 97 -5 -5 1006.7 999.3 +0.6 +11.3
15 19.07 СЗ 6 н/о н/о +1.4 0.0 90 -5 -5 1006.4 999.0
18 19.07 СЗ 4 н/о н/о +2.4 +0.6 88 -2 -2 1006.3 998.9 +0.5 +5.4
21 19.07 СЗ 3 н/о н/о +3.2 +1.1 86 -0 -0 1006.7 999.3
00 20.07 З 4 н/о н/о +2.0 +0.4 89 -3 -3 1007.8 1000.3 +0.5 +3.8
03 20.07 ЮЗ 5 н/о н/о -0.0 -0.6 96 -6 -6 1007.4 999.9
06 20.07 ЮЗ 1 н/о н/о +0.1 -0.8 94 -2 -2 1007.8 1000.3 -1.0 +5.4 7
09 20.07 ЮЗ 3 н/о н/о +1.1 +0.2 94 -3 -3 1007.6 1000.1
12 20.07 ЮЗ 3 н/о н/о +0.7 +0.6 99 -4 -4 1007.5 1000.0 -1.0 +5.4
15 20.07 Ю 4 н/о н/о +1.9 +0.3 89 -3 -3 1007.1 999.6
18 20.07 Ю 5 н/о н/о +2.8 +1.4 90 -3 -3 1006.4 998.9 -1.0 +3.1
21 20.07 Ю 6 н/о н/о +2.7 +2.3 97 -3 -3 1006.1 998.6
00 21.07 ЮЗ 4 н/о {осадки} н/о +1.3 +1.1 99 -4 -4 1006.3 998.8 +0.1 +3.2 0.2
03 21.07 ЮЗ 5 н/о н/о +0.5 +0.4 99 -6 -6 1006.9 999.4
06 21.07 З 5 н/о н/о +0.5 -1.2 88 -5 -5 1007.3 999.8 +0.1 +3.2
09 21.07 ЮЗ 3 н/о н/о +0.6 -0.1 95 -4 -4 1008.2 1000.7
12 21.07 Ю 3 н/о н/о +1.2 +0.8 97 -4 -4 1008.6 1001.1 +0.1 +3.2
15 21.07 ЮЗ 3 н/о н/о +1.4 +1.4 100 -3 -3 1008.1 1000.6
18 21.07 Ю 4 н/о н/о +2.4 +2.2 99 -3 -3 1007.6 1000.1 +0.1 +2.4
21 21.07 ЮЗ 3 н/о н/о +2.5 +1.5 93 -1 -1 1007.3 999.8
00 22.07 СВ 2 н/о н/о +3.4 +1.8 89 0 0 1005.4 998.0 +0.5 +3.4
03 22.07 В 8 н/о {осадки} н/о +2.2 +1.3 94 -5 -5 1003.2 995.8 1
06 22.07 В 10 н/о {осадки} н/о +2.4 +1.4 93 -5 -5 1000.1 992.7 +0.5 +4.1 7 6
09 22.07 СВ 11 н/о {осадки} н/о +2.9 +1.9 93 -5 -5 997.0 989.6 5
12 22.07 В 10 н/о {осадки} н/о +3.5 +2.8 95 -4 -4 994.8 987.5 +1.3 +4.1 7
15 22.07 В 6 н/о н/о +3.1 +2.7 97 -3 -3 993.3 986.0 2
18 22.07 ЮВ 4 н/о {осадки} н/о +2.7 +2.3 97 -2 -2 994.1 986.7 +1.3 +3.5 5
21 22.07 З 6 н/о н/о +2.7 +2.2 97 -3 -3 995.0 987.6
00 23.07 З 8 н/о н/о +1.1 +1.0 99 -6 -6 996.4 989.0 +1.0 +3.5
03 23.07 З 7 н/о н/о +0.5 +0.4 99 -7 -7 998.2 990.8 0.2
06 23.07 ЮЗ 7 н/о н/о +0.3 +0.2 99 -7 -7 999.9 992.5 +0.1 +3.5 0.2 9
09 23.07 Ю 6 н/о н/о +0.2 +0.1 99 -7 -7 1002.4 995.0
12 23.07 Ю 6 н/о н/о 0.0 0.0 100 -7 -7 1004.3 996.8 -0.0 +3.5
15 23.07 Ю 5 н/о н/о +1.2 +0.3 94 -5 -5 1006.1 998.6
18 23.07 ЮВ 2 н/о н/о +2.2 +0.2 87 -0 -0 1007.3 999.8 -0.1 +2.2

 

Местоположение метеостанции Исачсен (Нунавут, Канада): широта 78.78 долгота -103.50 высота над уровнем моря 58 м.

В архиве по умолчанию представлена погода в Исачсене за последнюю неделю. Архивные данные за месяц целиком и за предыдущие месяцы, начиная с января 2011 года, Вы можете получить, выбрав интересующий диапазон дат из раскрывающегося списка и нажав кнопку "Ввод!".


*Определитесь, кто Вы:
робот инопланетянин человек

Внимание! Время в таблицах - всемирное. Для получения местного времени необходимо прибавить поправку, которая равна -6 ч.

Смотрите также архив погоды в соседних городах и на ближайших метеорологических станциях:

Погода в Сарнии (Онтарио, Канада) (111 км)
Погода в Юрике (Нунавут, Канада) (382 км)
Погода в Юрике (Нунавут, Канада) (383 км)
Погода в Моулд Бэй (Северо-Западные территории, Канада) (472 км)
Погода в Ресольют Бэй (Нунавут, Канада) (500 км)
Погода в Аэропорту Ресольют Бэй (Нунавут, Канада) (500 км)
Погода на Острове Стефанссон (Нунавут, Канада) (559 км)
Погода в Национальном парке Олавик (Северо-Западные территории, Канада) (666 км)
Погода в Kitsissut (Гренландия) (751 км)
Погода в Mittarfik Qaanaaq (Гренландия) (782 км)

Пояснения к столбцам:

Ветер - указаны скорость ветра в м/с - средняя за 10 мин, порывы в срок и между сроками (в фигурных скобках) и направление, откуда дует ветер: С - северный, СВ - северо-восточный, В - восточный, ЮВ - юго-восточный, Ю - южный, ЮЗ - юго-западный, З - западный, СЗ - северо-западный.
Видимость - горизонтальная дальность видимости в метрах или километрах. При видимости от 1 до 10 км при отсутствии осадков обычно наблюдается дымка, при ухудшении видимости до 1 км и менее - туман. В сухую погоду видимость может ухудшаться дымом, пылью или мглою.
Явления - указаны атмосферные явления, наблюдавшиеся в срок или в последний час перед сроком; фигурными скобками обозначены явления, наблюдавшиеся между сроками (за 1-3 часа до срока); квадратными скобками обозначены град или гололедные отложения с указанием их диаметра в мм.
Облачность - указаны через наклонную черту общая и нижняя облачность в баллах и высота нижней границы облаков в метрах; квадратными скобками обозначены формы облаков: Ci - перистые, Cs - перисто-слоистые, Cc - перисто-кучевые, Ac - высококучевые, As - высокослоистые, Sc - слоисто-кучевые, Ns - слоисто-дождевые, Cu - кучевые, Cb - кучево-дождевые. Подробнее классификацию облаков см. в Атласе облаков (PDF).
T - Температура воздуха - температура, измеренная на высоте 2 м над землей.
Td - Температура точки росы - температура, при понижении до которой содержащийся в воздухе водяной пар достигнет насыщения.
f - Относительная влажность воздуха - влажноcть воздуха, измеренная на высоте 2 м над землей.
Te - Эффективная температура - температура, которую ощущает одетый по сезону человек в тени. Характеристика душности погоды. При расчете учитывается влияние влажности воздуха и скорости ветра на теплоощущения человека.
Tes - Эффективная температура на солнце - температура, которую ощущает человек, с поправкой на солнечный нагрев. Характеристика знойности погоды. Зависит от высоты солнца над горизонтом, облачности и скорости ветра. Ночью, в пасмурную погоду, а также при ветре 12 м/с и более поправка равна нулю.
P - Атмосферное давление - приведенное к уровню моря атмосферное давление.
Po - Атмосферное давление - измеренное на уровне метеостанции атмосферное давление.
Tmin - Минимальная температура - минимум температуры воздуха на высоте 2 м над землей.
Tmax - Максимальная температура - максимум температуры воздуха на высоте 2 м над землей.
R - Количество осадков - Количество выпавших осадков за период времени, мм. При наведении курсора мыши на число - период времени, за который выпало указанное количество осадков.
R24 - Количество осадков - Количество выпавших осадков за 24 часа, мм.
S - Снежный покров - Высота снежного покрова, см. При наведении курсора мыши на число - состояние снежного покрова и степень покрытия местности в баллах.